Powrót do katalogu

STARLINK-11355

AktywnyŁącznośćVLEO
NORAD 62415·PAYLOAD·🇺🇸 United States

Wystrzelony Dec 23, 2024 z Cape Canaveral Space Force Station

Loading…

Następne Przeloty (najbliższe 24 godziny)

TLE

ŚwieżeSource: CelesTrak SupGP

Epoka: Sep 15, 2026, 02:14 UTC

1 62415C 24249G   26258.09354167  .00106860  00000+0  82952-3 0  2584
2 62415  43.0006 105.7696 0001932 266.2344  10.6746 15.70799080    10

Śledź STARLINK-11355 w czasie rzeczywistym z AllMySat

Download on the App Store